SN5W LFLC-LFLV

Flight info

Callsign SN5W
Flight time 0h 28m
Altitude 3500
Route PEAGE DE GERZAT ENNEZAT PUY GUILLAUME VICHY
Aircraft DA40/L-SBDGRY/S

Departure

Time 2026-04-22 16:40
Airport Clermont-Ferrand Auvergne airport (LFLC)

Arrival

Time 2026-04-22 17:08
Airport Vichy-Charmeil Airport (LFLV)
Time Latitude Longitude Altitude Speed Heading
2026-04-22 16:14 45.78902 3.15508 1087 ft 0 kts 262°
2026-04-22 16:28 45.78901 3.15499 1087 ft 3 kts 258°
2026-04-22 16:28 45.78886 3.15484 1087 ft 4 kts 184°
2026-04-22 16:28 45.78852 3.15494 1087 ft 5 kts 148°
2026-04-22 16:29 45.78833 3.15557 1086 ft 10 kts 81°
2026-04-22 16:29 45.78847 3.15692 1085 ft 17 kts 84°
2026-04-22 16:29 45.78865 3.15869 1084 ft 13 kts 84°
2026-04-22 16:29 45.78865 3.15942 1083 ft 6 kts 91°
2026-04-22 16:30 45.78865 3.15951 1083 ft 0 kts 90°
2026-04-22 16:30 45.78865 3.15954 1083 ft 1 kts 88°
2026-04-22 16:31 45.78865 3.15992 1083 ft 7 kts 94°
2026-04-22 16:31 45.78837 3.16063 1082 ft 10 kts 145°
2026-04-22 16:31 45.78762 3.16119 1082 ft 15 kts 155°
2026-04-22 16:31 45.78670 3.16190 1082 ft 14 kts 150°
2026-04-22 16:32 45.78584 3.16247 1081 ft 12 kts 167°
2026-04-22 16:32 45.78504 3.16263 1081 ft 12 kts 173°
2026-04-22 16:32 45.78449 3.16295 1081 ft 6 kts 122°
2026-04-22 16:32 45.78441 3.16352 1080 ft 8 kts 89°
2026-04-22 16:33 45.78450 3.16445 1079 ft 11 kts 82°
2026-04-22 16:33 45.78463 3.16574 1078 ft 14 kts 86°
2026-04-22 16:33 45.78477 3.16725 1077 ft 16 kts 83°
2026-04-22 16:33 45.78492 3.16885 1076 ft 17 kts 80°
2026-04-22 16:34 45.78509 3.17059 1074 ft 17 kts 84°
2026-04-22 16:34 45.78526 3.17225 1073 ft 15 kts 81°
2026-04-22 16:34 45.78540 3.17366 1071 ft 14 kts 83°
2026-04-22 16:34 45.78554 3.17496 1070 ft 12 kts 84°
2026-04-22 16:35 45.78565 3.17615 1069 ft 11 kts 85°
2026-04-22 16:35 45.78575 3.17713 1068 ft 9 kts 83°
2026-04-22 16:35 45.78583 3.17801 1068 ft 9 kts 81°
2026-04-22 16:35 45.78601 3.17868 1067 ft 5 kts 48°
2026-04-22 16:36 45.78616 3.17882 1067 ft 2 kts 17°
2026-04-22 16:36 45.78663 3.17877 1067 ft 9 kts 351°
2026-04-22 16:36 45.78712 3.17867 1068 ft 6 kts 350°
2026-04-22 16:36 45.78732 3.17855 1069 ft 4 kts 308°
2026-04-22 16:37 45.78749 3.17791 1070 ft 9 kts 275°
2026-04-22 16:37 45.78748 3.17767 1070 ft 0 kts 261°
2026-04-22 16:39 45.78745 3.17739 1070 ft 15 kts 262°
2026-04-22 16:39 45.78708 3.17382 1071 ft 56 kts 266°
2026-04-22 16:39 45.78643 3.16706 1134 ft 74 kts 260°
2026-04-22 16:40 45.78562 3.15956 1272 ft 78 kts 259°
2026-04-22 16:40 45.78502 3.15199 1441 ft 78 kts 274°
2026-04-22 16:40 45.79293 3.14072 1746 ft 86 kts 338°
2026-04-22 16:41 45.79872 3.13837 1914 ft 90 kts 349°
2026-04-22 16:41 45.80511 3.13990 1998 ft 103 kts 32°
2026-04-22 16:41 45.81048 3.14739 2083 ft 108 kts 44°
2026-04-22 16:41 45.81666 3.15356 2185 ft 112 kts 23°
2026-04-22 16:42 45.82406 3.15762 2238 ft 115 kts 18°
2026-04-22 16:42 45.83173 3.16134 2330 ft 116 kts 18°
2026-04-22 16:42 45.83931 3.16473 2421 ft 115 kts 12°
2026-04-22 16:42 45.84708 3.16689 2553 ft 113 kts 17°
2026-04-22 16:43 45.85404 3.17236 2619 ft 116 kts 31°
2026-04-22 16:43 45.86099 3.17821 2702 ft 118 kts 27°
2026-04-22 16:43 45.86834 3.18375 2746 ft 120 kts 26°
2026-04-22 16:43 45.87581 3.18922 2798 ft 121 kts 26°
2026-04-22 16:44 45.88320 3.19459 2885 ft 119 kts 26°
2026-04-22 16:44 45.89076 3.20005 2889 ft 124 kts 26°
2026-04-22 16:44 45.89858 3.20571 2883 ft 127 kts 26°
2026-04-22 16:44 45.90646 3.21141 2883 ft 127 kts 26°
2026-04-22 16:45 45.91338 3.21903 2883 ft 128 kts 53°
2026-04-22 16:45 45.91671 3.23085 2886 ft 128 kts 75°
2026-04-22 16:45 45.91895 3.24320 2885 ft 127 kts 76°
2026-04-22 16:45 45.92114 3.25549 2891 ft 127 kts 75°
2026-04-22 16:46 45.92335 3.26782 2891 ft 128 kts 75°
2026-04-22 16:46 45.92555 3.28005 2885 ft 127 kts 76°
2026-04-22 16:46 45.92625 3.28394 2890 ft 127 kts 75°
2026-04-22 16:46 45.92847 3.29627 2887 ft 127 kts 75°
2026-04-22 16:47 45.93069 3.30862 2890 ft 128 kts 75°
2026-04-22 16:47 45.93294 3.32105 2887 ft 128 kts 75°
2026-04-22 16:47 45.93445 3.32941 2887 ft 128 kts 75°
2026-04-22 16:47 45.93738 3.34575 2887 ft 127 kts 75°
2026-04-22 16:48 45.93961 3.35809 2887 ft 128 kts 75°
2026-04-22 16:48 45.94184 3.37047 2890 ft 128 kts 76°
2026-04-22 16:48 45.94408 3.38296 2882 ft 129 kts 76°
2026-04-22 16:48 45.94631 3.39534 2883 ft 127 kts 75°
2026-04-22 16:49 45.94850 3.40759 2884 ft 126 kts 75°
2026-04-22 16:49 45.95069 3.41983 2883 ft 127 kts 76°
2026-04-22 16:49 45.95289 3.43208 2884 ft 126 kts 75°
2026-04-22 16:49 45.95507 3.44424 2884 ft 126 kts 75°
2026-04-22 16:50 45.95725 3.45637 2884 ft 125 kts 75°
2026-04-22 16:50 45.95939 3.46839 2885 ft 126 kts 75°
2026-04-22 16:50 45.96163 3.48085 2884 ft 128 kts 75°
2026-04-22 16:50 45.96595 3.49168 2909 ft 126 kts 43°
2026-04-22 16:51 45.97343 3.49720 2998 ft 120 kts 10°
2026-04-22 16:51 45.98179 3.49613 2954 ft 125 kts 342°
2026-04-22 16:51 45.99012 3.49219 2899 ft 128 kts 340°
2026-04-22 16:51 45.99850 3.48808 2900 ft 127 kts 340°
2026-04-22 16:52 46.00684 3.48401 2900 ft 127 kts 340°
2026-04-22 16:52 46.01520 3.47998 2895 ft 125 kts 341°
2026-04-22 16:52 46.02343 3.47596 2893 ft 124 kts 341°
2026-04-22 16:52 46.03161 3.47203 2893 ft 124 kts 341°
2026-04-22 16:53 46.03974 3.46810 2896 ft 123 kts 340°
2026-04-22 16:53 46.04785 3.46418 2896 ft 123 kts 341°
2026-04-22 16:53 46.05595 3.46025 2897 ft 123 kts 340°
2026-04-22 16:53 46.06413 3.45631 2893 ft 124 kts 341°
2026-04-22 16:54 46.07235 3.45230 2892 ft 125 kts 341°
2026-04-22 16:54 46.08054 3.44834 2893 ft 124 kts 341°
2026-04-22 16:54 46.08879 3.44435 2898 ft 126 kts 341°
2026-04-22 16:54 46.09697 3.44039 2892 ft 125 kts 340°
2026-04-22 16:55 46.10512 3.43643 2892 ft 123 kts 340°
2026-04-22 16:55 46.11327 3.43248 2892 ft 123 kts 341°
2026-04-22 16:55 46.12141 3.42854 2897 ft 124 kts 341°
2026-04-22 16:55 46.12967 3.42453 2896 ft 126 kts 341°
2026-04-22 16:56 46.13799 3.42049 2896 ft 127 kts 341°
2026-04-22 16:56 46.14630 3.41645 2892 ft 125 kts 340°
2026-04-22 16:56 46.15451 3.41245 2892 ft 124 kts 340°
2026-04-22 16:56 46.16273 3.40846 2898 ft 126 kts 340°
2026-04-22 16:57 46.17100 3.40445 2893 ft 125 kts 341°
2026-04-22 16:57 46.17845 3.39913 2846 ft 117 kts 316°
2026-04-22 16:57 46.18360 3.39033 2831 ft 110 kts 308°
2026-04-22 16:57 46.18821 3.38209 2898 ft 101 kts 308°
2026-04-22 16:58 46.19136 3.37722 2913 ft 100 kts 325°
2026-04-22 16:58 46.19962 3.38019 2886 ft 108 kts 66°
2026-04-22 16:58 46.19754 3.38990 2844 ft 112 kts 147°
2026-04-22 16:58 46.18969 3.39212 2618 ft 119 kts 185°
2026-04-22 16:59 46.18173 3.39055 2521 ft 112 kts 192°
2026-04-22 16:59 46.17437 3.38828 2446 ft 107 kts 194°
2026-04-22 16:59 46.16734 3.38607 2280 ft 100 kts 193°
2026-04-22 16:59 46.16082 3.38411 2148 ft 92 kts 193°
2026-04-22 17:00 46.15471 3.38203 2047 ft 88 kts 193°
2026-04-22 17:00 46.14382 3.38480 1795 ft 94 kts 101°
2026-04-22 17:00 46.14566 3.39327 1667 ft 92 kts 45°
2026-04-22 17:01 46.15053 3.39882 1361 ft 85 kts 28°
2026-04-22 17:01 46.15595 3.40098 1038 ft 77 kts
2026-04-22 17:01 46.16138 3.40191 886 ft 85 kts
2026-04-22 17:01 46.16733 3.40300 996 ft 87 kts
2026-04-22 17:02 46.17348 3.40432 1086 ft 92 kts
2026-04-22 17:02 46.17990 3.40536 1245 ft 93 kts
2026-04-22 17:02 46.18635 3.40634 1413 ft 93 kts
2026-04-22 17:02 46.19232 3.40394 1514 ft 95 kts 304°
2026-04-22 17:03 46.19324 3.39795 1613 ft 91 kts 272°
2026-04-22 17:03 46.19352 3.38878 1710 ft 93 kts 271°
2026-04-22 17:03 46.19342 3.37894 1720 ft 102 kts 258°
2026-04-22 17:03 46.18818 3.37287 1739 ft 105 kts 188°
2026-04-22 17:04 46.18086 3.37128 1772 ft 107 kts 189°
2026-04-22 17:04 46.17079 3.36969 1766 ft 112 kts 185°
2026-04-22 17:04 46.16552 3.36913 1766 ft 112 kts 186°
2026-04-22 17:04 46.15766 3.36823 1731 ft 114 kts 185°
2026-04-22 17:05 46.14987 3.36759 1715 ft 109 kts 183°
2026-04-22 17:05 46.14250 3.36729 1693 ft 106 kts 183°
2026-04-22 17:05 46.13519 3.36715 1675 ft 104 kts 180°
2026-04-22 17:05 46.12806 3.36746 1664 ft 103 kts 173°
2026-04-22 17:06 46.12357 3.37466 1566 ft 106 kts 91°
2026-04-22 17:06 46.12412 3.38457 1528 ft 95 kts 85°
2026-04-22 17:06 46.12444 3.39372 1476 ft 86 kts 84°
2026-04-22 17:06 46.12757 3.40047 1394 ft 84 kts 20°
2026-04-22 17:07 46.13321 3.39995 1313 ft 83 kts 344°
2026-04-22 17:07 46.13849 3.39822 1237 ft 73 kts 350°
2026-04-22 17:07 46.14363 3.39819 1142 ft 76 kts
2026-04-22 17:07 46.14888 3.39930 1058 ft 77 kts
2026-04-22 17:08 46.15423 3.40041 959 ft 78 kts
2026-04-22 17:08 46.15966 3.40156 846 ft 78 kts
2026-04-22 17:08 46.16437 3.40253 818 ft 53 kts
2026-04-22 17:08 46.16728 3.40313 815 ft 35 kts
2026-04-22 17:09 46.16893 3.40346 817 ft 19 kts
2026-04-22 17:09 46.17002 3.40370 817 ft 13 kts
2026-04-22 17:09 46.17079 3.40383 817 ft 9 kts
2026-04-22 17:09 46.17135 3.40387 818 ft 6 kts 355°
2026-04-22 17:10 46.17161 3.40376 818 ft 2 kts 331°
2026-04-22 17:10 46.17175 3.40358 818 ft 6 kts 313°
2026-04-22 17:10 46.17192 3.40272 816 ft 12 kts 279°
2026-04-22 17:10 46.17163 3.40172 816 ft 10 kts 199°
2026-04-22 17:11 46.17080 3.40152 816 ft 14 kts 187°
2026-04-22 17:11 46.16965 3.40129 816 ft 19 kts 189°
2026-04-22 17:11 46.16826 3.40101 817 ft 21 kts 188°
2026-04-22 17:11 46.16702 3.40073 817 ft 15 kts 187°
2026-04-22 17:12 46.16604 3.40052 818 ft 13 kts 187°
2026-04-22 17:12 46.16543 3.40030 818 ft 1 kts 238°
2026-04-22 17:12 46.16543 3.40012 818 ft 5 kts 277°
2026-04-22 17:12 46.16548 3.39975 818 ft 1 kts 279°
2026-04-22 17:13 46.16548 3.39973 818 ft 0 kts 278°